Regional Weather Roundup
Issued by NWS

Home | Current Version | Previous Version | Graphics & Text | Print | Product List | Glossary On
Versions: 1 2 3 4 5 6 7 8 9 10 11 12 13 14 15 16 17 18 19 20 21 22 23 24 25 26 27 28 29 30 31 32 33 34 35 36 37 38 39 40 41 42 43 44 45 46 47 48 49 50
000
ASUS43 KLMK 210410
RWRKY
KENTUCKY REGIONAL WEATHER ROUNDUP
NATIONAL WEATHER SERVICE LOUISVILLE KY
1200 AM EDT SUN SEP 21 2014

NOTE "FAIR" INDICATES FEW OR NO CLOUDS BELOW 12,000 FEET
WITH NO SIGNIFICANT WEATHER AND/OR OBSTRUCTIONS TO VISIBILITY.

KYZ001>023-026-027-061>063-070>075-210500-
WESTERN AND SOUTH CENTRAL KENTUCKY

CITY           SKY/WX    TMP DP  RH WIND       PRES   REMARKS
PADUCAH        CLEAR     76  68  76 SW6       29.97S
HENDERSON      CLEAR     66  63  88 SW5       29.96S
OWENSBORO      CLEAR     69  65  87 S5        29.97F
HOPKINSVILLE   CLEAR     71  71 100 S6        30.00F
BOWLING GREEN  CLEAR     68  65  90 CALM      30.01S
GLASGOW        CLEAR     66  66 100 CALM      30.01S
$$

KYZ024-025-028>034-038-045-046-053-210500-
NORTH CENTRAL KENTUCKY

CITY           SKY/WX    TMP DP  RH WIND       PRES   REMARKS
LOUISVILLE/SDF MOCLDY    75  66  73 S9        29.95F
LOUISVILLE/LOU CLEAR     73  66  78 S5        29.96F
FORT KNOX      CLEAR     69  65  88 S6        29.96F
$$

KYZ035>037-039>044-047>052-055>060-089>105-210500-
NORTHEAST KENTUCKY

CITY           SKY/WX    TMP DP  RH WIND       PRES   REMARKS
LEXINGTON      CLEAR     71  64  78 S9        29.99F
COVINGTON      CLOUDY    71  64  78 S9        29.94F
FRANKFORT      CLEAR     69  64  84 SW5       29.97F
$$

KYZ054-064>069-076>088-106>120-210500-
SOUTHEAST KENTUCKY

CITY           SKY/WX    TMP DP  RH WIND       PRES   REMARKS
JACKSON        CLEAR     67  63  87 CALM      30.03F
LONDON         CLEAR     66  63  90 CALM      30.04F FOG
SOMERSET       PTCLDY    64  64 100 CALM      30.04F
MIDDLESBORO    PTCLDY    61  60  97 CALM      30.08S
MONTICELLO     CLEAR     63  63 100 CALM      30.05S FOG
$$




USA.gov is the U.S. government's official web portal to all federal, state and local government web resources and services.